Location: Northwest Suburban Astronomers
(42.1100°N, 88.0300°W)
Time: 06:04:05
(UTC-05:00)

Daily predictions for brighter satellites

Satellite Brightness Start Highest point End
(mag) Time Altitude Azimuth Time Altitude Azimuth Time Altitude Azimuth
Meteor 2-14 Rocket 4.4 18:21:10 10° S 18:27:13 77° E 18:33:18 10° N
SMAP 3.3 18:23:46 10° S 18:28:25 81° WSW 18:33:06 10° NNW
Meteor 1-16 Rocket 4.1 18:23:09 10° S 18:28:27 86° E 18:33:50 10° N
Cosmos 2056 Rocket 3.7 18:24:08 10° NNW 18:29:29 85° WSW 18:34:42 10° SSE
Cosmos 2151 3.4 18:26:58 10° N 18:31:01 40° ENE 18:35:02 10° SSE
Meteor 2-16 Rocket 4.4 18:25:27 10° S 18:31:29 71° E 18:37:36 10° NNE
Cosmos 1727 Rocket 4.1 18:27:24 10° N 18:33:40 56° ENE 18:39:52 10° SSE
Landsat 4 3.7 18:31:16 10° NNE 18:35:01 88° W 18:38:43 10° SSW
SPOT 3 Rocket 3.9 18:30:11 10° SE 18:35:05 44° ENE 18:40:00 10° N
ERS-2 2.2 18:31:38 10° SSE 18:35:18 89° SSW 18:39:02 10° NNW
Lacrosse 5 rocket 3.8 18:35:09 10° WNW 18:38:09 17° NNW 18:41:04 10° NNE
Cosmos 1328 4.3 18:34:54 10° NNW 18:38:51 64° W 18:42:45 10° S
Cosmos 2219 Rocket 3.5 18:34:58 10° N 18:38:56 19° NE 18:42:53 10° E
RESURS DK-1 2.6 18:35:03 10° NNW 18:39:06 49° ENE 18:43:06 10° SE
Cosmos 1484 Rocket 3.6 18:37:39 10° S 18:41:18 54° W 18:44:57 10° NNW
GP-B 3.1 18:37:33 10° N 18:41:59 64° E 18:46:23 10° S
Cosmos 44 Rocket 4.4 18:38:47 10° SSE 18:42:28 23° ESE 18:46:09 10° ENE
SL-8 R/B 3.7 18:38:06 10° SW 18:42:54 79° SSE 18:47:45 10° ENE
Aureole 1 Rocket 4.3 18:40:08 10° SSW 18:46:34 62° WNW 18:51:25 10° NNE
Cosmos 1452 Rocket 3.6 18:41:56 10° NNW 18:47:07 56° ENE 18:52:16 10° SE
Meteor 1-28 Rocket 3.5 18:43:24 10° N 18:47:12 73° WNW 18:50:57 10° SSW
Cosmos 1703 3.2 18:44:33 10° N 18:48:28 65° E 18:52:20 10° SSE
Cosmos 1726 3.7 18:46:28 10° SE 18:48:46 16° E 18:51:04 10° NE
Cosmos 2058 2.9 18:44:56 10° N 18:49:06 64° E 18:53:13 10° SSE
Atlas Centaur 2 3.7 18:46:02 10° SW 18:49:20 20° S 18:53:09 10° SE
SKYMED 2 3.6 18:45:04 10° NNE 18:49:22 59° E 18:53:39 10° S
Cosmos 2098 Rocket 4.4 18:45:59 10° SE 18:49:40 25° E 18:54:05 10° NNE
BREEZE-M DEB (TANK) 2.0 18:50:02 10° WNW 18:52:12 41° SW 18:54:10 10° SE
Cosmos 1743 Rocket 3.6 18:48:22 10° N 18:52:47 87° W 18:57:11 10° S
Delta 2 Rocket 4.4 18:49:58 10° WSW 18:53:19 28° S 18:56:09 11° ESE
Gbstr 26 Del rocket 4.1 18:48:56 10° NW 18:53:33 41° NNE 18:58:17 14° E
SL-16 R/B 3.7 18:49:20 10° NW 18:54:39 42° WSW 18:59:56 10° S
Aureole 2 Rocket 4.3 18:54:25 10° NNE 18:57:04 17° ENE 18:58:14 16° E
Cosmos 2221 2.9 18:55:23 10° SSE 18:59:24 40° E 19:03:29 10° NNE
METEOR-M 4.1 18:55:56 10° SSE 19:01:16 87° ENE 19:06:39 10° NNW
Cosmos 1908 3.4 18:57:36 10° S 19:01:23 50° E 19:05:12 10° NNE
Cosmos 1842 Rocket 3.7 18:56:58 10° S 19:01:25 83° W 19:05:54 10° N
Cosmos 2237 4.2 18:56:20 10° NNW 19:02:01 61° ENE 19:07:40 10° SE
CZ-4C R/B 2.8 18:59:17 10° S 19:03:49 32° ESE 19:08:29 11° NE
SL-24 R/B - RUBIN 2 3.6 18:59:01 10° NNW 19:03:56 89° ENE 19:08:21 10° SSE
GENESIS II 4.2 19:00:38 10° SSW 19:04:36 88° WNW 19:08:36 10° NNE
BREEZE-M DEB (TANK) 2.1 19:03:50 10° WSW 19:06:04 49° NNW 19:07:09 21° NE
NOAA 12 4.1 19:01:27 10° SSE 19:06:40 65° ENE 19:11:57 10° N
Cosmos 921 Rocket 3.0 19:02:21 10° NNW 19:06:49 71° ENE 19:11:10 10° SSE
Cosmos 1400 Rocket 3.6 19:04:34 10° NNW 19:08:32 54° W 19:12:24 10° S
H-2A R/B 3.6 19:07:32 12° SE 19:10:29 29° ENE 19:13:54 10° N
Cosmos 2237 Rocket 3.6 19:07:34 10° N 19:11:38 20° NE 19:13:12 18° ENE
Iridium 4 Rocket 3.8 19:06:35 10° SSE 19:11:56 53° E 19:17:37 10° NNE
Cosmos 1500 Rocket 3.9 19:09:42 10° NNW 19:14:01 66° W 19:18:18 10° S
DELTA 2 R/B (1) 4.0 19:09:30 10° W 19:14:59 58° SSW 19:19:09 17° ESE
CZ-4 R/B 3.9 19:15:08 10° SSW 19:18:42 26° W 19:22:15 10° NW
Cosmos 1626 3.9 19:15:50 10° NNW 19:19:16 36° W 19:22:42 10° SSW
Cosmos 2227 Rocket 4.1 19:17:04 10° SE 19:17:27 11° SE 19:17:27 11° SE
SL-16 R/B 4.2 19:19:56 10° NNE 19:21:32 11° NE 19:21:48 11° NE
Resurs 01 Rocket 3.4 19:23:46 16° NE 19:23:46 16° NE 19:25:25 10° NNE
ALOS 2.2 19:20:39 10° SSE 19:25:19 90° NNE 19:30:01 10° NNW
Cosmos 1048 Rocket 3.9 19:20:43 10° S 19:25:46 62° ESE 19:30:50 10° NNE
Cosmos 1420 Rocket 4.1 19:26:12 10° NNW 19:31:33 81° WSW 19:36:49 10° SSE
Cosmos 1300 4.4 19:30:10 10° SSE 19:31:27 19° SSE 19:31:27 19° SSE
Cosmos 2360 Rocket 3.2 19:29:17 10° NW 19:34:43 49° WSW 19:40:08 10° S
Envisat 4.2 19:35:33 23° NE 19:35:33 23° NE 19:38:52 10° NNE
APEX 2.4 19:31:54 10° SSW 19:35:08 88° WNW 19:35:53 46° NNE
Cosmos 1980 4.5 19:30:38 10° N 19:35:33 30° NE 19:36:25 28° ENE
NOSS 0 Rocket 4.4 19:29:51 10° NNW 19:35:39 40° NE 19:37:56 30° E
Cosmos 1535 Rocket 4.4 19:30:07 10° S 19:36:08 62° E 19:42:10 10° NNE
COSMO-SKYMED 1 3.9 19:33:18 10° N 19:37:22 40° WNW 19:41:26 10° SW
Thor Agena Rocket 3.4 19:32:24 10° NNE 19:37:30 69° ESE 19:42:31 10° S
COSMOS 2428 2.6 19:32:45 10° NNW 19:38:28 80° ENE 19:44:03 10° SSE
Cosmos 158 Rocket 4.0 19:34:43 10° SSW 19:39:46 81° WNW 19:44:59 10° NNE
Cosmos 2333 Rocket 2.5 19:36:09 10° NNW 19:41:41 46° ENE 19:43:38 34° ESE
Sich 1 3.1 19:39:06 10° N 19:43:23 52° E 19:44:35 39° SE
Cosmos 2219 3.1 19:40:40 10° SSW 19:46:23 75° ESE 19:52:09 10° NNE
Abrixas rocket 3.7 19:44:35 10° WNW 19:47:25 26° N 19:47:29 26° N
BREEZE-M DEB (TANK) 3.3 19:40:47 10° W 19:50:40 59° N 19:52:04 40° NE
Cosmos 1805 Rocket 3.6 19:48:16 10° N 19:52:40 80° W 19:57:04 10° S
Centaur D AC-29 3.5 19:51:44 10° WSW 19:57:00 17° SSW 19:59:12 13° SSE
FengYun 1-2 T 4.2 19:53:55 10° SSE 19:59:26 83° WSW 20:04:57 10° NNW
Cosmos 44 3.3 19:55:23 10° SW 19:59:42 65° NW 20:01:36 32° NNE
Cosmos 1666 Rocket 3.3 19:57:13 10° N 20:01:36 82° E 20:02:13 64° SSE
Cosmos 1331 Rocket 4.2 19:57:42 10° N 20:02:36 50° ENE 20:02:36 50° ENE
Cosmos 1821 Rocket 4.3 20:00:56 10° SSW 20:07:03 68° W 20:13:18 10° N
Cosmos 1633 Rocket 3.0 20:04:34 10° N 20:08:36 71° NNE 20:08:36 71° NNE
Cosmos 1934 Rocket 4.0 20:04:22 10° S 20:10:44 84° W 20:17:09 10° N
USA 267 3.2 20:12:42 50° E 20:14:01 58° SE 20:20:26 10° SSW
SJ-6B 3.4 20:16:15 53° WNW 20:16:15 53° WNW 20:19:35 10° NNW
MOS 1-B Rocket 3.7 20:15:59 53° SE 20:17:22 76° ENE 20:23:27 10° N
Lacrosse 5 rocket 4.0 20:18:02 10° NNW 20:18:56 11° N 20:19:08 11° N
Cosmos 2219 Rocket 2.3 20:17:53 10° NNW 20:23:28 72° WSW 20:25:02 47° S
Cosmos 44 Rocket 4.2 20:19:15 10° WSW 20:23:43 43° NW 20:25:31 30° N
Cosmos 1726 4.0 20:20:30 10° SW 20:23:47 30° WNW 20:27:06 10° NNW
SL-8 R/B 4.5 20:21:08 10° W 20:25:45 43° NNW 20:25:48 43° N
Meteor 2-10 4.3 20:23:14 10° SSW 20:28:13 62° WNW 20:33:18 10° N
Aureole 2 Rocket 4.2 20:28:35 10° NW 20:31:42 37° W 20:31:42 37° W
Cosmos 2123 Rocket 4.4 20:29:57 10° NNW 20:36:06 62° W 20:42:15 10° S
Atlas Centaur 2 4.2 20:34:40 10° SW 20:37:32 15° SSW 20:37:32 15° SSW
Spot 2 Rocket 4.5 20:40:35 39° N 20:40:35 39° N 20:43:44 10° NNW
Gbstr 26 Del rocket 3.9 20:35:31 10° WNW 20:40:52 67° SW 20:40:52 67° SW
Cosmos 1605 Rocket 4.1 20:35:14 10° SSW 20:41:19 71° W 20:47:25 10° N
USA 234 3.8 20:49:37 43° NNE 20:49:37 43° NNE 20:55:21 10° NW
CZ-4C R/B 3.2 20:47:05 10° WSW 20:52:06 41° NW 20:53:44 34° N
Cosmos 2237 Rocket 2.8 20:50:37 10° NNW 20:55:03 54° NW 20:55:03 54° NW
Resurs 01 Rocket 3.9 21:01:21 21° NW 21:01:21 21° NW 21:02:54 10° NNW
Cosmos 2227 Rocket 4.2 20:58:05 10° SSW 20:59:25 18° SSW 20:59:25 18° SSW
SL-16 R/B 3.8 21:01:18 10° NNW 21:03:41 25° N 21:03:41 25° N
Cosmos 2333 Rocket 4.0 21:20:57 10° NW 21:25:39 27° WSW 21:25:41 27° WSW
